Time,TemperatureF,DewpointF,PressureIn,WindDirection,WindDirectionDegrees,WindSpeedMPH,WindSpeedGustMPH,Humidity,HourlyPrecipIn,Conditions,Clouds,dailyrainin,SoftwareType,DateUTC
2013-02-25 08:04:00,51.0,-99.9,-100.00,ESE,122,0.0,-999.0,-999,-99.99,,,-99.99,,2013-02-25 14:04:00,
2013-02-25 08:18:00,51.0,-99.9,-100.00,ESE,122,0.0,-999.0,-999,-99.99,,,-99.99,,2013-02-25 14:18:00,
2013-02-25 08:32:00,51.0,-99.9,-100.00,ESE,122,0.0,-999.0,-999,-99.99,,,-99.99,,2013-02-25 14:32:00,
2013-02-25 08:42:00,51.0,-99.9,-100.00,ESE,122,0.0,-999.0,-999,-99.99,,,-99.99,,2013-02-25 14:42:00,
2013-02-25 11:02:00,56.0,-99.9,-100.00,WSW,237,0.0,-999.0,-999,-99.99,,,-99.99,,2013-02-25 17:02:00,
2013-02-25 11:11:00,56.0,-99.9,-100.00,WSW,237,0.0,-999.0,-999,-99.99,,,-99.99,,2013-02-25 17:11:00,
2013-02-25 11:22:00,56.0,-99.9,-100.00,WSW,237,0.0,-999.0,-999,-99.99,,,-99.99,,2013-02-25 17:22:00,
2013-02-25 11:32:00,56.0,-99.9,-100.00,WSW,237,0.0,-999.0,-999,-99.99,,,-99.99,,2013-02-25 17:32:00,
2013-02-25 11:42:00,56.0,-99.9,-100.00,WSW,237,0.0,-999.0,-999,-99.99,,,-99.99,,2013-02-25 17:42:00,
2013-02-25 14:32:00,60.0,-99.9,-100.00,WSW,250,0.0,-999.0,-999,-99.99,,,-99.99,,2013-02-25 20:32:00,
2013-02-25 14:42:00,60.0,-99.9,-100.00,WSW,250,0.0,-999.0,-999,-99.99,,,-99.99,,2013-02-25 20:42:00,
2013-02-25 14:52:00,60.0,-99.9,-100.00,WSW,250,0.0,-999.0,-999,-99.99,,,-99.99,,2013-02-25 20:52:00,
2013-02-25 15:02:00,58.0,-99.9,-100.00,WSW,243,0.0,-999.0,-999,-99.99,,,-99.99,,2013-02-25 21:02:00,
2013-02-25 15:22:00,58.0,-99.9,-100.00,WSW,243,0.0,-999.0,-999,-99.99,,,-99.99,,2013-02-25 21:22:00,
2013-02-25 15:32:00,56.0,-99.9,-100.00,West,263,0.0,-999.0,-999,-99.99,,,-99.99,,2013-02-25 21:32:00,
2013-02-25 15:42:00,56.0,-99.9,-100.00,West,263,0.0,-999.0,-999,-99.99,,,-99.99,,2013-02-25 21:42:00,
2013-02-25 15:52:00,56.0,-99.9,-100.00,West,263,0.0,-999.0,-999,-99.99,,,-99.99,,2013-02-25 21:52:00,
2013-02-25 16:02:00,55.0,-99.9,-100.00,West,268,0.0,-999.0,-999,-99.99,,,-99.99,,2013-02-25 22:02:00,
2013-02-25 16:11:00,55.0,-99.9,-100.00,West,268,0.0,-999.0,-999,-99.99,,,-99.99,,2013-02-25 22:11:00,
2013-02-25 16:22:00,55.0,-99.9,-100.00,West,268,0.0,-999.0,-999,-99.99,,,-99.99,,2013-02-25 22:22:00,
2013-02-25 16:32:00,52.0,-99.9,-100.00,WSW,244,0.0,-999.0,-999,-99.99,,,-99.99,,2013-02-25 22:32:00,
2013-02-25 16:42:00,52.0,-99.9,-100.00,WSW,244,0.0,-999.0,-999,-99.99,,,-99.99,,2013-02-25 22:42:00,
2013-02-25 16:52:00,52.0,-99.9,-100.00,WSW,244,0.0,-999.0,-999,-99.99,,,-99.99,,2013-02-25 22:52:00,
2013-02-25 17:01:00,52.0,-99.9,-100.00,WSW,244,0.0,-999.0,-999,-99.99,,,-99.99,,2013-02-25 23:01:00,
2013-02-25 17:11:00,52.0,-99.9,-100.00,WSW,244,0.0,-999.0,-999,-99.99,,,-99.99,,2013-02-25 23:11:00,